TimeEDT,TemperatureF,Dew PointF,Humidity,Sea Level PressureIn,VisibilityMPH,Wind Direction,Wind SpeedMPH,Gust SpeedMPH,PrecipitationIn,Events,Conditions,WindDirDegrees,DateUTC
12:21 AM,46.4,42.8,87,30.23,9.0,Variable,3.5,-,N/A,,Overcast,0,2012-10-12 04:21:00
12:30 AM,46.4,42.8,87,30.23,8.0,North,4.6,-,0.01,Rain,Light Rain,360,2012-10-12 04:30:00
12:53 AM,46.0,42.1,86,30.24,7.0,NNE,4.6,-,0.03,Rain,Light Rain,30,2012-10-12 04:53:00
1:11 AM,44.6,42.8,93,30.24,8.0,Calm,Calm,-,0.01,Rain,Light Rain,0,2012-10-12 05:11:00
1:53 AM,45.0,44.1,97,30.25,4.0,East,3.5,-,0.06,Rain,Light Rain,100,2012-10-12 05:53:00
2:04 AM,44.6,42.8,93,30.25,4.0,Calm,Calm,-,0.01,Rain,Light Rain,0,2012-10-12 06:04:00
2:25 AM,44.6,42.8,93,30.27,4.0,NE,8.1,17.3,0.04,Rain,Light Rain,40,2012-10-12 06:25:00
2:53 AM,43.0,41.0,93,30.29,5.0,ENE,3.5,-,0.06,Rain,Light Rain,70,2012-10-12 06:53:00
3:53 AM,42.1,41.0,96,30.30,10.0,Calm,Calm,-,0.02,,Overcast,0,2012-10-12 07:53:00
4:53 AM,41.0,39.9,96,30.32,8.0,Calm,Calm,-,N/A,,Overcast,0,2012-10-12 08:53:00
5:53 AM,41.0,37.9,89,30.34,10.0,ENE,4.6,-,N/A,,Overcast,70,2012-10-12 09:53:00
6:53 AM,39.9,36.0,86,30.37,10.0,ENE,5.8,-,N/A,,Mostly Cloudy,70,2012-10-12 10:53:00
7:53 AM,37.0,34.0,89,30.39,10.0,East,6.9,-,N/A,,Clear,80,2012-10-12 11:53:00
8:53 AM,39.0,35.1,86,30.42,10.0,ENE,5.8,-,N/A,,Clear,70,2012-10-12 12:53:00
10:53 AM,45.0,33.1,63,30.46,10.0,East,11.5,-,N/A,,Clear,80,2012-10-12 14:53:00
1:53 PM,51.1,30.0,44,30.45,10.0,ESE,9.2,-,N/A,,Clear,110,2012-10-12 17:53:00
2:53 PM,52.0,28.9,41,30.43,10.0,Calm,Calm,-,N/A,,Clear,0,2012-10-12 18:53:00
3:53 PM,52.0,26.1,37,30.41,10.0,Variable,4.6,-,N/A,,Clear,0,2012-10-12 19:53:00
4:53 PM,52.0,28.9,41,30.40,10.0,WSW,3.5,-,N/A,,Clear,240,2012-10-12 20:53:00
6:53 PM,46.9,36.0,66,30.37,10.0,Calm,Calm,-,N/A,,Clear,0,2012-10-12 22:53:00
7:53 PM,41.0,35.1,79,30.38,10.0,Calm,Calm,-,N/A,,Clear,0,2012-10-12 23:53:00
8:53 PM,37.0,35.1,93,30.38,10.0,Calm,Calm,-,N/A,,Clear,0,2012-10-13 00:53:00
9:53 PM,35.1,34.0,96,30.38,9.0,Calm,Calm,-,N/A,,Clear,0,2012-10-13 01:53:00
10:53 PM,33.1,32.0,96,30.36,10.0,East,3.5,-,N/A,,Clear,80,2012-10-13 02:53:00
11:53 PM,36.0,30.9,82,30.34,10.0,ESE,3.5,-,N/A,,Clear,110,2012-10-13 03:53:00